Year,Month,Day,Hour,Minute,Value (Times are PST for temperature in C)
2009,07,30,00,00,23.20
2009,07,30,00,01,23.10
2009,07,30,00,02,22.90
2009,07,30,00,03,22.80
2009,07,30,00,04,22.60
2009,07,30,00,05,22.50
2009,07,30,00,06,22.30
2009,07,30,00,07,22.20
2009,07,30,00,08,22.10
2009,07,30,00,09,22.00
2009,07,30,00,10,21.90
2009,07,30,00,11,21.80
2009,07,30,00,12,21.80
2009,07,30,00,13,21.70
2009,07,30,00,14,21.60
2009,07,30,00,15,21.60
2009,07,30,00,16,21.60
2009,07,30,00,17,21.50
2009,07,30,00,18,21.40
2009,07,30,00,19,21.40
2009,07,30,00,20,21.40
2009,07,30,00,21,21.30
2009,07,30,00,22,21.30
2009,07,30,00,23,21.30
2009,07,30,00,24,21.30
2009,07,30,00,25,21.30
2009,07,30,00,26,21.30
2009,07,30,00,27,21.30
2009,07,30,00,28,21.30
2009,07,30,00,29,21.30
2009,07,30,00,30,21.30
2009,07,30,00,31,21.30
2009,07,30,00,32,21.30
2009,07,30,00,33,21.30
2009,07,30,00,34,21.30
2009,07,30,00,35,21.30
2009,07,30,00,36,21.30
2009,07,30,00,37,21.30
2009,07,30,00,38,21.30
2009,07,30,00,39,21.30
2009,07,30,00,40,21.30
2009,07,30,00,41,21.30
2009,07,30,00,42,21.30
2009,07,30,00,43,21.40
2009,07,30,00,44,21.40
2009,07,30,00,45,21.40
2009,07,30,00,46,21.50
2009,07,30,00,47,21.60
2009,07,30,00,48,21.60
2009,07,30,00,49,21.60
2009,07,30,00,50,21.60
2009,07,30,00,51,21.60
2009,07,30,00,52,21.60
2009,07,30,00,53,21.60
2009,07,30,00,54,21.60
2009,07,30,00,55,21.60
2009,07,30,00,56,21.60
2009,07,30,00,57,21.60
2009,07,30,00,58,21.40
2009,07,30,00,59,21.40
2009,07,30,01,00,21.40
2009,07,30,01,01,21.40
2009,07,30,01,02,21.40
2009,07,30,01,03,21.40
2009,07,30,01,04,21.40
2009,07,30,01,05,21.30
2009,07,30,01,06,21.30
2009,07,30,01,07,21.30
2009,07,30,01,08,21.30
2009,07,30,01,09,21.30
2009,07,30,01,10,21.30
2009,07,30,01,11,21.30
2009,07,30,01,12,21.20
2009,07,30,01,13,21.20
2009,07,30,01,14,21.10
2009,07,30,01,15,21.10
2009,07,30,01,16,21.00
2009,07,30,01,17,21.00
2009,07,30,01,18,20.90
2009,07,30,01,19,20.90
2009,07,30,01,20,20.90
2009,07,30,01,21,20.80
2009,07,30,01,22,20.80
2009,07,30,01,23,20.80
2009,07,30,01,24,20.80
2009,07,30,01,25,20.80
2009,07,30,01,26,20.80
2009,07,30,01,27,20.80
2009,07,30,01,28,20.80
2009,07,30,01,29,20.80
2009,07,30,01,30,20.70
2009,07,30,01,31,20.70
2009,07,30,01,32,20.70
2009,07,30,01,33,20.70
2009,07,30,01,34,20.70
2009,07,30,01,35,20.80
2009,07,30,01,36,20.80
2009,07,30,01,37,20.80
2009,07,30,01,38,20.80
2009,07,30,01,39,20.80
2009,07,30,01,40,20.70
2009,07,30,01,41,20.70
2009,07,30,01,42,20.70
2009,07,30,01,43,20.70
2009,07,30,01,44,20.70
2009,07,30,01,45,20.70
2009,07,30,01,46,20.80
2009,07,30,01,47,20.80
2009,07,30,01,48,20.80
2009,07,30,01,49,20.80
2009,07,30,01,50,20.80
2009,07,30,01,51,20.80
2009,07,30,01,52,20.80
2009,07,30,01,53,20.80
2009,07,30,01,54,20.90
2009,07,30,01,55,20.90
2009,07,30,01,56,21.00
2009,07,30,01,57,21.00
2009,07,30,01,58,21.00
2009,07,30,01,59,21.10
2009,07,30,02,00,21.10
2009,07,30,02,01,21.10
2009,07,30,02,02,21.20
2009,07,30,02,03,21.20
2009,07,30,02,04,21.20
2009,07,30,02,05,21.30
2009,07,30,02,06,21.30
2009,07,30,02,07,21.30
2009,07,30,02,08,21.30
2009,07,30,02,09,21.30
2009,07,30,02,10,21.30
2009,07,30,02,11,21.30
2009,07,30,02,12,21.30
2009,07,30,02,13,21.30
2009,07,30,02,14,21.30
2009,07,30,02,15,21.30
2009,07,30,02,16,21.30
2009,07,30,02,17,21.30
2009,07,30,02,18,21.30
2009,07,30,02,19,21.30
2009,07,30,02,20,21.20
2009,07,30,02,21,21.10
2009,07,30,02,22,21.10
2009,07,30,02,23,21.10
2009,07,30,02,24,21.00
2009,07,30,02,25,21.00
2009,07,30,02,26,21.00
2009,07,30,02,27,21.00
2009,07,30,02,28,21.00
2009,07,30,02,29,21.00
2009,07,30,02,30,21.00
2009,07,30,02,31,21.00
2009,07,30,02,32,21.00
2009,07,30,02,33,21.00
2009,07,30,02,34,21.00
2009,07,30,02,35,20.90
2009,07,30,02,36,20.90
2009,07,30,02,37,20.90
2009,07,30,02,38,20.90
2009,07,30,02,39,20.90
2009,07,30,02,40,20.90
2009,07,30,02,41,20.80
2009,07,30,02,42,20.80
2009,07,30,02,43,20.80
2009,07,30,02,44,20.80
2009,07,30,02,45,20.80
2009,07,30,02,46,20.70
2009,07,30,02,47,20.70
2009,07,30,02,48,20.70
2009,07,30,02,49,20.70
2009,07,30,02,50,20.70
2009,07,30,02,51,20.60
2009,07,30,02,52,20.60
2009,07,30,02,53,20.60
2009,07,30,02,54,20.60
2009,07,30,02,55,20.60
2009,07,30,02,56,20.50
2009,07,30,02,57,20.50
2009,07,30,02,58,20.50
2009,07,30,02,59,20.50
2009,07,30,03,00,20.50
2009,07,30,03,01,20.40
2009,07,30,03,02,20.30
2009,07,30,03,03,20.30
2009,07,30,03,04,20.20
2009,07,30,03,05,20.20
2009,07,30,03,06,20.20
2009,07,30,03,07,20.20
2009,07,30,03,08,20.20
2009,07,30,03,09,20.20
2009,07,30,03,10,20.10
2009,07,30,03,11,20.10
2009,07,30,03,12,20.00
2009,07,30,03,13,19.90
2009,07,30,03,14,19.90
2009,07,30,03,15,19.90
2009,07,30,03,16,19.90
2009,07,30,03,17,19.90
2009,07,30,03,18,19.90
2009,07,30,03,19,19.90
2009,07,30,03,20,19.90
2009,07,30,03,21,19.90
2009,07,30,03,22,19.90
2009,07,30,03,23,19.90
2009,07,30,03,24,19.90
2009,07,30,03,25,19.90
2009,07,30,03,26,19.90
2009,07,30,03,27,19.90
2009,07,30,03,28,19.90
2009,07,30,03,29,19.90
2009,07,30,03,30,19.90
2009,07,30,03,31,19.90
2009,07,30,03,32,19.90
2009,07,30,03,33,19.90
2009,07,30,03,34,19.90
2009,07,30,03,35,19.90
2009,07,30,03,36,19.90
2009,07,30,03,37,19.90
2009,07,30,03,38,19.90
2009,07,30,03,39,19.90
2009,07,30,03,40,19.90
2009,07,30,03,41,19.90
2009,07,30,03,42,19.90
2009,07,30,03,43,19.90
2009,07,30,03,44,19.90
2009,07,30,03,45,19.90
2009,07,30,03,46,19.90
2009,07,30,03,47,19.90
2009,07,30,03,48,19.90
2009,07,30,03,49,19.90
2009,07,30,03,50,19.90
2009,07,30,03,51,19.90
2009,07,30,03,52,19.90
2009,07,30,03,53,19.90
2009,07,30,03,54,19.90
2009,07,30,03,55,19.90
2009,07,30,03,56,19.90
2009,07,30,03,57,19.90
2009,07,30,03,58,19.90
2009,07,30,03,59,19.80
2009,07,30,04,00,19.80
2009,07,30,04,01,19.70
2009,07,30,04,02,19.70
2009,07,30,04,03,19.60
2009,07,30,04,04,19.60
2009,07,30,04,05,19.50
2009,07,30,04,06,19.50
2009,07,30,04,07,19.50
2009,07,30,04,08,19.40
2009,07,30,04,09,19.40
2009,07,30,04,10,19.40
2009,07,30,04,11,19.40
2009,07,30,04,12,19.30
2009,07,30,04,13,19.30
2009,07,30,04,14,19.30
2009,07,30,04,15,19.30
2009,07,30,04,16,19.20
2009,07,30,04,17,19.20
2009,07,30,04,18,19.20
2009,07,30,04,19,19.20
2009,07,30,04,20,19.20
2009,07,30,04,21,19.10
2009,07,30,04,22,19.10
2009,07,30,04,23,19.10
2009,07,30,04,24,19.10
2009,07,30,04,25,19.10
2009,07,30,04,26,19.10
2009,07,30,04,27,19.10
2009,07,30,04,28,19.10
2009,07,30,04,29,19.10
2009,07,30,04,30,19.10
2009,07,30,04,31,19.10
2009,07,30,04,32,19.10
2009,07,30,04,33,19.10
2009,07,30,04,34,19.10
2009,07,30,04,35,19.10
2009,07,30,04,36,19.10
2009,07,30,04,37,19.10
2009,07,30,04,38,19.10
2009,07,30,04,39,19.10
2009,07,30,04,40,19.00
2009,07,30,04,41,18.90
2009,07,30,04,42,18.90
2009,07,30,04,43,18.90
2009,07,30,04,44,18.90
2009,07,30,04,45,18.90
2009,07,30,04,46,18.90
2009,07,30,04,47,18.90
2009,07,30,04,48,18.90
2009,07,30,04,49,18.90
2009,07,30,04,50,18.80
2009,07,30,04,51,18.80
2009,07,30,04,52,18.80
2009,07,30,04,53,18.80
2009,07,30,04,54,18.80
2009,07,30,04,55,18.80
2009,07,30,04,56,18.80
2009,07,30,04,57,18.80
2009,07,30,04,58,18.80
2009,07,30,04,59,18.70
2009,07,30,05,00,18.70
2009,07,30,05,01,18.70
2009,07,30,05,02,18.70
2009,07,30,05,03,18.70
2009,07,30,05,04,18.70
2009,07,30,05,05,18.70
2009,07,30,05,06,18.70
2009,07,30,05,07,18.70
2009,07,30,05,08,18.70
2009,07,30,05,09,18.70
2009,07,30,05,10,18.60
2009,07,30,05,11,18.60
2009,07,30,05,12,18.60
2009,07,30,05,13,18.60
2009,07,30,05,14,18.60
2009,07,30,05,15,18.60
2009,07,30,05,16,18.60
2009,07,30,05,17,18.60
2009,07,30,05,18,18.60
2009,07,30,05,19,18.60
2009,07,30,05,20,18.60
2009,07,30,05,21,18.60
2009,07,30,05,22,18.50
2009,07,30,05,23,18.50
2009,07,30,05,24,18.50
2009,07,30,05,25,18.50
2009,07,30,05,26,18.50
2009,07,30,05,27,18.50
2009,07,30,05,28,18.50
2009,07,30,05,29,18.40
2009,07,30,05,30,18.40
2009,07,30,05,31,18.40
2009,07,30,05,32,18.40
2009,07,30,05,33,18.40
2009,07,30,05,34,18.40
2009,07,30,05,35,18.40
2009,07,30,05,36,18.40
2009,07,30,05,37,18.40
2009,07,30,05,38,18.40
2009,07,30,05,39,18.30
2009,07,30,05,40,18.30
2009,07,30,05,41,18.30
2009,07,30,05,42,18.30
2009,07,30,05,43,18.30
2009,07,30,05,44,18.30
2009,07,30,05,45,18.30
2009,07,30,05,46,18.30
2009,07,30,05,47,18.30
2009,07,30,05,48,18.30
2009,07,30,05,49,18.30
2009,07,30,05,50,18.30
2009,07,30,05,51,18.30
2009,07,30,05,52,18.30
2009,07,30,05,53,18.30
2009,07,30,05,54,18.30
2009,07,30,05,55,18.30
2009,07,30,05,56,18.30
2009,07,30,05,57,18.30
2009,07,30,05,58,18.30
2009,07,30,05,59,18.30
2009,07,30,06,00,18.30
2009,07,30,06,01,18.30
2009,07,30,06,02,18.30
2009,07,30,06,03,18.30
2009,07,30,06,04,18.30
2009,07,30,06,05,18.30
2009,07,30,06,06,18.30
2009,07,30,06,07,18.40
2009,07,30,06,08,18.40
2009,07,30,06,09,18.40
2009,07,30,06,10,18.40
2009,07,30,06,11,18.40
2009,07,30,06,12,18.40
2009,07,30,06,13,18.40
2009,07,30,06,14,18.40
2009,07,30,06,15,18.50
2009,07,30,06,16,18.50
2009,07,30,06,17,18.50
2009,07,30,06,18,18.50
2009,07,30,06,19,18.60
2009,07,30,06,20,18.60
2009,07,30,06,21,18.60
2009,07,30,06,22,18.60
2009,07,30,06,23,18.60
2009,07,30,06,24,18.70
2009,07,30,06,25,18.70
2009,07,30,06,26,18.70
2009,07,30,06,27,18.70
2009,07,30,06,28,18.80
2009,07,30,06,29,18.80
2009,07,30,06,30,18.80
2009,07,30,06,31,18.90
2009,07,30,06,32,18.90
2009,07,30,06,33,18.90
2009,07,30,06,34,18.90
2009,07,30,06,35,18.90
2009,07,30,06,36,18.90
2009,07,30,06,37,18.90
2009,07,30,06,38,18.90
2009,07,30,06,39,19.00
2009,07,30,06,40,19.10
2009,07,30,06,41,19.10
2009,07,30,06,42,19.10
2009,07,30,06,43,19.10
2009,07,30,06,44,19.10
2009,07,30,06,45,19.10
2009,07,30,06,46,19.20
2009,07,30,06,47,19.20
2009,07,30,06,48,19.30
2009,07,30,06,49,19.40
2009,07,30,06,50,19.40
2009,07,30,06,51,19.50
2009,07,30,06,52,19.60
2009,07,30,06,53,19.70
2009,07,30,06,54,19.80
2009,07,30,06,55,19.90
2009,07,30,06,56,19.90
2009,07,30,06,57,20.00
2009,07,30,06,58,20.10
2009,07,30,06,59,20.10
2009,07,30,07,00,20.20
2009,07,30,07,01,20.20
2009,07,30,07,02,20.30
2009,07,30,07,03,20.30
2009,07,30,07,04,20.40
2009,07,30,07,05,20.50
2009,07,30,07,06,20.50
2009,07,30,07,07,20.60
2009,07,30,07,08,20.70
2009,07,30,07,09,20.70
2009,07,30,07,10,20.80
2009,07,30,07,11,20.90
2009,07,30,07,12,21.00
2009,07,30,07,13,21.00
2009,07,30,07,14,21.10
2009,07,30,07,15,21.20
2009,07,30,07,16,21.20
2009,07,30,07,17,21.20
2009,07,30,07,18,21.20
2009,07,30,07,19,21.20
2009,07,30,07,20,21.30
2009,07,30,07,21,21.30
2009,07,30,07,22,21.20
2009,07,30,07,23,21.20
2009,07,30,07,24,21.20
2009,07,30,07,25,21.20
2009,07,30,07,26,21.20
2009,07,30,07,27,21.20
2009,07,30,07,28,21.20
2009,07,30,07,29,21.20
2009,07,30,07,30,21.20
2009,07,30,07,31,21.20
2009,07,30,07,32,21.20
2009,07,30,07,33,21.20
2009,07,30,07,34,21.20
2009,07,30,07,35,21.20
2009,07,30,07,36,21.20
2009,07,30,07,37,21.20
2009,07,30,07,38,21.30
2009,07,30,07,39,21.30
2009,07,30,07,40,21.30
2009,07,30,07,41,21.30
2009,07,30,07,42,21.30
2009,07,30,07,43,21.30
2009,07,30,07,44,21.30
2009,07,30,07,45,21.30
2009,07,30,07,46,21.30
2009,07,30,07,47,21.30
2009,07,30,07,48,21.20
2009,07,30,07,49,21.10
2009,07,30,07,50,21.00
2009,07,30,07,51,21.00
2009,07,30,07,52,20.90
2009,07,30,07,53,20.90
2009,07,30,07,54,20.80
2009,07,30,07,55,20.70
2009,07,30,07,56,20.70
2009,07,30,07,57,20.60
2009,07,30,07,58,20.60
2009,07,30,07,59,20.60
2009,07,30,08,00,20.60
2009,07,30,08,01,20.60
2009,07,30,08,02,20.70
2009,07,30,08,03,20.70
2009,07,30,08,04,20.70
2009,07,30,08,05,20.70
2009,07,30,08,06,20.80
2009,07,30,08,07,20.80
2009,07,30,08,08,20.90
2009,07,30,08,09,21.00
2009,07,30,08,10,21.10
2009,07,30,08,11,21.10
2009,07,30,08,12,21.10
2009,07,30,08,13,21.10
2009,07,30,08,14,21.10
2009,07,30,08,15,21.20
2009,07,30,08,16,21.20
2009,07,30,08,17,21.20
2009,07,30,08,18,21.30
2009,07,30,08,19,21.30
2009,07,30,08,20,21.30
2009,07,30,08,21,21.30
2009,07,30,08,22,21.30
2009,07,30,08,23,21.40
2009,07,30,08,24,21.50
2009,07,30,08,25,21.60
2009,07,30,08,26,21.60
2009,07,30,08,27,21.70
2009,07,30,08,28,21.90
2009,07,30,08,29,22.10
2009,07,30,08,30,22.20
2009,07,30,08,31,22.30
2009,07,30,08,32,22.50
2009,07,30,08,33,22.50
2009,07,30,08,34,22.60
2009,07,30,08,35,22.60
2009,07,30,08,36,22.70
2009,07,30,08,37,22.70
2009,07,30,08,38,22.60
2009,07,30,08,39,22.70
2009,07,30,08,40,22.70
2009,07,30,08,41,22.70
2009,07,30,08,42,22.70
2009,07,30,08,43,22.80
2009,07,30,08,44,22.80
2009,07,30,08,45,22.90
2009,07,30,08,46,22.80
2009,07,30,08,47,22.80
2009,07,30,08,48,22.90
2009,07,30,08,49,22.80
2009,07,30,08,50,22.80
2009,07,30,08,51,22.80
2009,07,30,08,52,22.80
2009,07,30,08,53,22.80
2009,07,30,08,54,22.80
2009,07,30,08,55,22.80
2009,07,30,08,56,22.80
2009,07,30,08,57,22.90
2009,07,30,08,58,23.00
2009,07,30,08,59,23.10
2009,07,30,09,00,23.10
2009,07,30,09,01,23.20
2009,07,30,09,02,23.20
2009,07,30,09,03,23.20
2009,07,30,09,04,23.30
2009,07,30,09,05,23.30
2009,07,30,09,06,23.30
2009,07,30,09,07,23.40
2009,07,30,09,08,23.50
2009,07,30,09,09,23.70
2009,07,30,09,10,23.70
2009,07,30,09,11,23.80
2009,07,30,09,12,23.80
2009,07,30,09,13,23.90
2009,07,30,09,14,24.10
2009,07,30,09,15,24.10
2009,07,30,09,16,24.30
2009,07,30,09,17,24.40
2009,07,30,09,18,24.40
2009,07,30,09,19,24.40
2009,07,30,09,20,24.40
2009,07,30,09,21,24.40
2009,07,30,09,22,24.50
2009,07,30,09,23,24.50
2009,07,30,09,24,24.50
2009,07,30,09,25,24.60
2009,07,30,09,26,24.80
2009,07,30,09,27,24.90
2009,07,30,09,28,24.90
2009,07,30,09,29,25.00
2009,07,30,09,30,25.10
2009,07,30,09,31,25.20
2009,07,30,09,32,25.30
2009,07,30,09,33,25.40
2009,07,30,09,34,25.40
2009,07,30,09,35,25.50
2009,07,30,09,36,25.60
2009,07,30,09,37,25.60
2009,07,30,09,38,25.60
2009,07,30,09,39,25.60
2009,07,30,09,40,25.60
2009,07,30,09,41,25.70
2009,07,30,09,42,25.70
2009,07,30,09,43,25.70
2009,07,30,09,44,25.70
2009,07,30,09,45,25.70
2009,07,30,09,46,25.60
2009,07,30,09,47,25.60
2009,07,30,09,48,25.60
2009,07,30,09,49,25.50
2009,07,30,09,50,25.40
2009,07,30,09,51,25.40
2009,07,30,09,52,25.40
2009,07,30,09,53,25.40
2009,07,30,09,54,25.40
2009,07,30,09,55,25.40
2009,07,30,09,56,25.40
2009,07,30,09,57,25.40
2009,07,30,09,58,25.50
2009,07,30,09,59,25.50
2009,07,30,10,00,25.50
2009,07,30,10,01,25.60
2009,07,30,10,02,25.50
2009,07,30,10,03,25.40
2009,07,30,10,04,25.30
2009,07,30,10,05,25.40
2009,07,30,10,06,25.40
2009,07,30,10,07,25.40
2009,07,30,10,08,25.40
2009,07,30,10,09,25.40
2009,07,30,10,10,25.40
2009,07,30,10,11,25.50
2009,07,30,10,12,25.60
2009,07,30,10,13,25.60
2009,07,30,10,14,25.60
2009,07,30,10,15,25.60
2009,07,30,10,16,25.70
2009,07,30,10,17,25.70
2009,07,30,10,18,25.60
2009,07,30,10,19,25.50
2009,07,30,10,20,25.50
2009,07,30,10,21,25.50
2009,07,30,10,22,25.60
2009,07,30,10,23,25.60
2009,07,30,10,24,25.60
2009,07,30,10,25,25.50
2009,07,30,10,26,25.40
2009,07,30,10,27,25.50
2009,07,30,10,28,25.50
2009,07,30,10,29,25.40
2009,07,30,10,30,25.30
2009,07,30,10,31,25.30
2009,07,30,10,32,25.30
2009,07,30,10,33,25.10
2009,07,30,10,34,25.10
2009,07,30,10,35,25.00
2009,07,30,10,36,24.90
2009,07,30,10,37,24.90
2009,07,30,10,38,25.00
2009,07,30,10,39,25.20
2009,07,30,10,40,25.20
2009,07,30,10,41,25.20
2009,07,30,10,42,25.20
2009,07,30,10,43,25.10
2009,07,30,10,44,25.10
2009,07,30,10,45,25.10
2009,07,30,10,46,25.10
2009,07,30,10,47,25.10
2009,07,30,10,48,25.00
2009,07,30,10,49,25.00
2009,07,30,10,50,24.90
2009,07,30,10,51,24.90
2009,07,30,10,52,24.80
2009,07,30,10,53,24.70
2009,07,30,10,54,24.60
2009,07,30,10,55,24.70
2009,07,30,10,56,24.70
2009,07,30,10,57,24.60
2009,07,30,10,58,24.60
2009,07,30,10,59,24.60
2009,07,30,11,00,24.60
2009,07,30,11,01,24.70
2009,07,30,11,02,24.80
2009,07,30,11,03,24.80
2009,07,30,11,04,24.80
2009,07,30,11,05,24.90
2009,07,30,11,06,25.00
2009,07,30,11,07,25.10
2009,07,30,11,08,25.30
2009,07,30,11,09,25.30
2009,07,30,11,10,25.30
2009,07,30,11,11,25.30
2009,07,30,11,12,25.30
2009,07,30,11,13,25.30
2009,07,30,11,14,25.40
2009,07,30,11,15,25.40
2009,07,30,11,16,25.50
2009,07,30,11,17,25.50
2009,07,30,11,18,25.50
2009,07,30,11,19,25.50
2009,07,30,11,20,25.40
2009,07,30,11,21,25.40
2009,07,30,11,22,25.40
2009,07,30,11,23,25.40
2009,07,30,11,24,25.20
2009,07,30,11,25,25.10
2009,07,30,11,26,25.00
2009,07,30,11,27,25.00
2009,07,30,11,28,25.00
2009,07,30,11,29,25.00
2009,07,30,11,30,25.00
2009,07,30,11,31,25.00
2009,07,30,11,32,25.00
2009,07,30,11,33,25.00
2009,07,30,11,34,25.00
2009,07,30,11,35,25.00
2009,07,30,11,36,25.00
2009,07,30,11,37,25.00
2009,07,30,11,38,25.00
2009,07,30,11,39,25.00
2009,07,30,11,40,25.00
2009,07,30,11,41,25.10
2009,07,30,11,42,25.10
2009,07,30,11,43,25.10
2009,07,30,11,44,25.10
2009,07,30,11,45,25.10
2009,07,30,11,46,25.10
2009,07,30,11,47,25.20
2009,07,30,11,48,25.30
2009,07,30,11,49,25.40
2009,07,30,11,50,25.40
2009,07,30,11,51,25.50
2009,07,30,11,52,25.60
2009,07,30,11,53,25.70
2009,07,30,11,54,25.70
2009,07,30,11,55,25.70
2009,07,30,11,56,25.70
2009,07,30,11,57,25.60
2009,07,30,11,58,25.50
2009,07,30,11,59,25.50
2009,07,30,12,00,25.40
2009,07,30,12,01,25.40
2009,07,30,12,02,25.40
2009,07,30,12,03,25.50
2009,07,30,12,04,25.50
2009,07,30,12,05,25.50
2009,07,30,12,06,25.50
2009,07,30,12,07,25.60
2009,07,30,12,08,25.80
2009,07,30,12,09,25.80
2009,07,30,12,10,25.90
2009,07,30,12,11,26.00
2009,07,30,12,12,26.10
2009,07,30,12,13,26.20
2009,07,30,12,14,26.20
2009,07,30,12,15,26.30
2009,07,30,12,16,26.40
2009,07,30,12,17,26.50
2009,07,30,12,18,26.60
2009,07,30,12,19,26.70
2009,07,30,12,20,26.80
2009,07,30,12,21,26.90
2009,07,30,12,22,26.90
2009,07,30,12,23,26.90
2009,07,30,12,24,26.90
2009,07,30,12,25,26.90
2009,07,30,12,26,27.00
2009,07,30,12,27,27.10
2009,07,30,12,28,27.10
2009,07,30,12,29,27.10
2009,07,30,12,30,27.20
2009,07,30,12,31,27.20
2009,07,30,12,32,27.30
2009,07,30,12,33,27.30
2009,07,30,12,34,27.30
2009,07,30,12,35,27.40
2009,07,30,12,36,27.30
2009,07,30,12,37,27.30
2009,07,30,12,38,27.30
2009,07,30,12,39,27.30
2009,07,30,12,40,27.30
2009,07,30,12,41,27.30
2009,07,30,12,42,27.30
2009,07,30,12,43,27.30
2009,07,30,12,44,27.30
2009,07,30,12,45,27.30
2009,07,30,12,46,27.30
2009,07,30,12,47,27.30
2009,07,30,12,48,27.40
2009,07,30,12,49,27.40
2009,07,30,12,50,27.40
2009,07,30,12,51,27.60
2009,07,30,12,52,27.50
2009,07,30,12,53,27.50
2009,07,30,12,54,27.60
2009,07,30,12,55,27.60
2009,07,30,12,56,27.70
2009,07,30,12,57,27.80
2009,07,30,12,58,27.90
2009,07,30,12,59,28.00
2009,07,30,13,00,28.00
2009,07,30,13,01,28.20
2009,07,30,13,02,28.30
2009,07,30,13,03,28.50
2009,07,30,13,04,28.60
2009,07,30,13,05,28.60
2009,07,30,13,06,28.70
2009,07,30,13,07,28.80
2009,07,30,13,08,29.00
2009,07,30,13,09,29.10
2009,07,30,13,10,29.20
2009,07,30,13,11,29.20
2009,07,30,13,12,29.20
2009,07,30,13,13,29.20
2009,07,30,13,14,29.30
2009,07,30,13,15,29.40
2009,07,30,13,16,29.50
2009,07,30,13,17,29.70
2009,07,30,13,18,29.90
2009,07,30,13,19,29.90
2009,07,30,13,20,29.90
2009,07,30,13,21,29.80
2009,07,30,13,22,29.90
2009,07,30,13,23,29.90
2009,07,30,13,24,30.00
2009,07,30,13,25,30.20
2009,07,30,13,26,30.40
2009,07,30,13,27,30.50
2009,07,30,13,28,30.60
2009,07,30,13,29,30.60
2009,07,30,13,30,30.60
2009,07,30,13,31,30.60
2009,07,30,13,32,30.70
2009,07,30,13,33,30.80
2009,07,30,13,34,30.80
2009,07,30,13,35,30.90
2009,07,30,13,36,30.90
2009,07,30,13,37,30.90
2009,07,30,13,38,30.80
2009,07,30,13,39,30.80
2009,07,30,13,40,30.70
2009,07,30,13,41,30.60
2009,07,30,13,42,30.60
2009,07,30,13,43,30.40
2009,07,30,13,44,30.30
2009,07,30,13,45,30.30
2009,07,30,13,46,30.30
2009,07,30,13,47,30.30
2009,07,30,13,48,30.30
2009,07,30,13,49,30.30
2009,07,30,13,50,30.40
2009,07,30,13,51,30.50
2009,07,30,13,52,30.60
2009,07,30,13,53,30.70
2009,07,30,13,54,30.80
2009,07,30,13,55,30.80
2009,07,30,13,56,30.80
2009,07,30,13,57,30.80
2009,07,30,13,58,30.80
2009,07,30,13,59,30.80
2009,07,30,14,00,30.80
2009,07,30,14,01,30.80
2009,07,30,14,02,30.80
2009,07,30,14,03,30.80
2009,07,30,14,04,30.80
2009,07,30,14,05,30.80
2009,07,30,14,06,30.90
2009,07,30,14,07,30.90
2009,07,30,14,08,30.90
2009,07,30,14,09,30.90
2009,07,30,14,10,31.00
2009,07,30,14,11,31.00
2009,07,30,14,12,31.00
2009,07,30,14,13,30.90
2009,07,30,14,14,30.90
2009,07,30,14,15,30.90
2009,07,30,14,16,31.00
2009,07,30,14,17,31.10
2009,07,30,14,18,31.10
2009,07,30,14,19,31.20
2009,07,30,14,20,31.30
2009,07,30,14,21,31.30
2009,07,30,14,22,31.40
2009,07,30,14,23,31.40
2009,07,30,14,24,31.60
2009,07,30,14,25,31.60
2009,07,30,14,26,31.70
2009,07,30,14,27,31.80
2009,07,30,14,28,31.90
2009,07,30,14,29,31.90
2009,07,30,14,30,31.90
2009,07,30,14,31,31.90
2009,07,30,14,32,31.80
2009,07,30,14,33,31.80
2009,07,30,14,34,31.80
2009,07,30,14,35,31.90
2009,07,30,14,36,31.90
2009,07,30,14,37,31.80
2009,07,30,14,38,31.70
2009,07,30,14,39,31.70
2009,07,30,14,40,31.60
2009,07,30,14,41,31.60
2009,07,30,14,42,31.60
2009,07,30,14,43,31.70
2009,07,30,14,44,31.80
2009,07,30,14,45,31.80
2009,07,30,14,46,31.90
2009,07,30,14,47,31.90
2009,07,30,14,48,31.90
2009,07,30,14,49,31.80
2009,07,30,14,50,31.90
2009,07,30,14,51,31.90
2009,07,30,14,52,31.90
2009,07,30,14,53,32.00
2009,07,30,14,54,32.10
2009,07,30,14,55,32.10
2009,07,30,14,56,32.10
2009,07,30,14,57,32.10
2009,07,30,14,58,31.90
2009,07,30,14,59,32.10
2009,07,30,15,00,32.10
2009,07,30,15,01,32.10
2009,07,30,15,02,32.10
2009,07,30,15,03,32.10
2009,07,30,15,04,32.10
2009,07,30,15,05,32.10
2009,07,30,15,06,32.10
2009,07,30,15,07,32.10
2009,07,30,15,08,32.10
2009,07,30,15,09,32.10
2009,07,30,15,10,32.10
2009,07,30,15,11,32.20
2009,07,30,15,12,32.20
2009,07,30,15,13,32.20
2009,07,30,15,14,32.10
2009,07,30,15,15,32.10
2009,07,30,15,16,32.10
2009,07,30,15,17,32.10
2009,07,30,15,18,32.10
2009,07,30,15,19,32.10
2009,07,30,15,20,32.00
2009,07,30,15,21,31.90
2009,07,30,15,22,31.90
2009,07,30,15,23,31.90
2009,07,30,15,24,32.00
2009,07,30,15,25,32.10
2009,07,30,15,26,32.10
2009,07,30,15,27,32.20
2009,07,30,15,28,32.30
2009,07,30,15,29,32.40
2009,07,30,15,30,32.60
2009,07,30,15,31,32.50
2009,07,30,15,32,32.40
2009,07,30,15,33,32.30
2009,07,30,15,34,32.30
2009,07,30,15,35,32.30
2009,07,30,15,36,32.20
2009,07,30,15,37,32.20
2009,07,30,15,38,32.20
2009,07,30,15,39,32.20
2009,07,30,15,40,32.20
2009,07,30,15,41,32.20
2009,07,30,15,42,32.20
2009,07,30,15,43,32.10
2009,07,30,15,44,32.10
2009,07,30,15,45,32.00
2009,07,30,15,46,31.90
2009,07,30,15,47,31.90
2009,07,30,15,48,31.80
2009,07,30,15,49,31.80
2009,07,30,15,50,31.60
2009,07,30,15,51,31.50
2009,07,30,15,52,31.50
2009,07,30,15,53,31.60
2009,07,30,15,54,31.70
2009,07,30,15,55,31.80
2009,07,30,15,56,31.80
2009,07,30,15,57,31.80
2009,07,30,15,58,31.60
2009,07,30,15,59,31.40
2009,07,30,16,00,31.20
2009,07,30,16,01,30.90
2009,07,30,16,02,30.80
2009,07,30,16,03,30.60
2009,07,30,16,04,30.50
2009,07,30,16,05,30.40
2009,07,30,16,06,30.30
2009,07,30,16,07,30.20
2009,07,30,16,08,30.10
2009,07,30,16,09,30.10
2009,07,30,16,10,30.00
2009,07,30,16,11,29.80
2009,07,30,16,12,29.80
2009,07,30,16,13,29.80
2009,07,30,16,14,29.80
2009,07,30,16,15,29.80
2009,07,30,16,16,29.90
2009,07,30,16,17,29.90
2009,07,30,16,18,30.00
2009,07,30,16,19,30.10
2009,07,30,16,20,30.10
2009,07,30,16,21,30.10
2009,07,30,16,22,30.00
2009,07,30,16,23,29.90
2009,07,30,16,24,29.80
2009,07,30,16,25,29.70
2009,07,30,16,26,29.70
2009,07,30,16,27,29.70
2009,07,30,16,28,29.60
2009,07,30,16,29,29.60
2009,07,30,16,30,29.60
2009,07,30,16,31,29.60
2009,07,30,16,32,29.70
2009,07,30,16,33,29.70
2009,07,30,16,34,29.70
2009,07,30,16,35,29.70
2009,07,30,16,36,29.80
2009,07,30,16,37,29.90
2009,07,30,16,38,29.90
2009,07,30,16,39,29.90
2009,07,30,16,40,29.90
2009,07,30,16,41,29.90
2009,07,30,16,42,29.90
2009,07,30,16,43,29.90
2009,07,30,16,44,29.90
2009,07,30,16,45,29.80
2009,07,30,16,46,29.70
2009,07,30,16,47,29.70
2009,07,30,16,48,29.70
2009,07,30,16,49,29.70
2009,07,30,16,50,29.60
2009,07,30,16,51,29.60
2009,07,30,16,52,29.60
2009,07,30,16,53,29.50
2009,07,30,16,54,29.50
2009,07,30,16,55,29.50
2009,07,30,16,56,29.50
2009,07,30,16,57,29.50
2009,07,30,16,58,29.50
2009,07,30,16,59,29.50
2009,07,30,17,00,29.50
2009,07,30,17,01,29.40
2009,07,30,17,02,29.40
2009,07,30,17,03,29.40
2009,07,30,17,04,29.40
2009,07,30,17,05,29.40
2009,07,30,17,06,29.50
2009,07,30,17,07,29.50
2009,07,30,17,08,29.50
2009,07,30,17,09,29.50
2009,07,30,17,10,29.40
2009,07,30,17,11,29.40
2009,07,30,17,12,29.40
2009,07,30,17,13,29.40
2009,07,30,17,14,29.50
2009,07,30,17,15,29.40
2009,07,30,17,16,29.50
2009,07,30,17,17,29.50
2009,07,30,17,18,29.50
2009,07,30,17,19,29.50